GEESAT 4-08

导读

GEESAT 4-08是中国于2025年8月8日发射的国产卫星,目前已稳定运行超半年,作为GEESAT系列卫星的组成部分,它承载着中国航天技术迭代的研发使命。依托国内成熟的发射测控体系,该卫星可服务于天地一体化通信、遥感观测等领域,为商业航天应用、灾害监测、全球信息互联提供新的空间基础设施支撑,助力中国卫星网络布局完善,推动商业航天产业高质量发展。

Basic Information
目录编号:
65126
目录名称:
GEESAT 4-08
国际标识:
2025-170H
轨道中心:
EARTH
卫星名称:
GEESAT 4-08
卫星全名:
GEESAT 4-08
卫星状态:
在轨 (已飞行399 天)
发射日期:
2025-08-08 UTC
国别 :
中国 (CN)
星等 :
--
This satellite is enrolled in the Space Conjunction Data Service (SCDS) and the current flight risk assessment level is: High Risk
Orbit Information
数据来源 国际轨道数据 AOE轨道数据
星历时间 2026-09-11T11:28:53+0800
13小时前
查看轨道信息
2026-09-10T18:00:00+0800
1天前
查看轨道信息
半长轴 7000.024km 7000.037km
偏心率 0.002047 0.0020383
轨道倾角 49.965° 49.966°
近地点辐角 312.458° 309.732°
升交点赤经 89.616° 92.990°
平近点角 47.463° 120.344°
近地点 607.557km 607.631km
远地点 636.217km 636.169km
周期 97.142分钟 97.143分钟
每日圈数 14.823594 14.823552
Detailed Information
使用方式:
暂无
2D Orbit Map
3D Orbit Map
Orbit Altitude Analysis Chart
Orbit Inclination Analysis Chart
Orbit Comprehensive Analysis Chart
View Comprehensive Chart
Conjunction Data List
Event ID Objects TCA Miss Dist (km) Collision Risk Probability Collision Risk Index (CRI) Action
CDM_260911-095706-512606-571626
2026-09-11T
09:57:13+0000
0.585 km
远距离
1.20139E-4 高风险 0.77
CDM_260912-093101-382606-512629
2026-09-12T
09:31:49+0000
1.744 km
极远距离
4.106226E-6 低风险 0.47
CDM_260912-055402-967806-512628
COROT (29678)
2026-09-12T
05:54:50+0000
1.879 km
极远距离
2.163537E-6 低风险 0.42
CDM_260914-040803-716606-512621
2026-09-14T
04:08:03+0000
2.653 km
极远距离
1.559531E-6 低风险 0.39
Miss Distance Evolution Trend with All Objects
Collision Probability Evolution Trend with All Objects